Location: Curries
(43.0713°N, 80.7206°W)
Time: 01:01:06
(UTC+00:00)

Tiangong - Visible Passes

Search period start: 20 January 2022 00:00
Search period end: 30 January 2022 00:00
Orbit: 383 x 386 km, 41.5° (Epoch: 19 January)

Date Brightness Start Highest point End Pass type
(mag) Time Alt. Az. Time Alt. Az. Time Alt. Az.
26 Jan 3.2 23:56:06 10° S 23:58:01 15° SSE 23:58:01 15° SSE visible
28 Jan 3.1 00:31:47 10° SW 00:33:26 24° SSW 00:33:26 24° SSW visible
28 Jan 2.7 23:32:24 10° SSW 23:35:00 23° SSE 23:36:34 16° ESE visible
29 Jan 4.4 01:08:23 10° WSW 01:08:47 13° WSW 01:08:47 13° WSW visible
